SES-14

Last updated on Tue Jul 08 2025 00:02:47 GMT+0000 (Coordinated Universal Time)

1 43175U 18012B 25188.55403135 -.00000261 00000+0 00000+0 0 9990 2 43175 0.0111 13.1217 0001289 86.5978 337.9959 1.00271397 3562
UTC large
Height (km)
Speed (km/s)
/
Latitude / Longitude
Inclination (degrees)
Orbital Period (minutes)
Azimuth
Elevation
Range (km)
Doppler Factor

Next 0 passes for location: London (51.5072 / 0.1276)

Sorry there are no passes over London.